Weather History for El Paso, TX

Change the Weather History Date:

Friday, March 16, 2012

  Actual Average Record
Temperature  
Mean Temperature 63 °F 56 °F  
Max Temperature 83 °F 70 °F 85 °F (2013)
Min Temperature 42 °F 43 °F 22 °F (1880)
Degree Days  
Heating Degree Days 2 9  
Month to date heating degree days 171 165  
Since 1 July heating degree days 2194 2268  
Cooling Degree Days 0 0  
Month to date cooling degree days 1 0  
Year to date cooling degree days 1 0  
Growing Degree Days 13 (Base 50)    
Moisture  
Dew Point 4 °F    
Average Humidity 13    
Maximum Humidity 20    
Minimum Humidity 5    
Precipitation  
Precipitation 0.00 in 0.01 in 0.34 in (1941)
Month to date precipitation 0.00 0.15  
Year to date precipitation 0.68 1.01  
Snow  
Snow 0.00 in - - ()
Month to date snowfall 0.0  
Since 1 July snowfall 3.2  
Snow Depth 0.00 in    
Sea Level Pressure  
Sea Level Pressure 29.86 in    
Wind  
Wind Speed 6 mph (West)    
Max Wind Speed 20 mph    
Max Gust Speed 25 mph    
Visibility 10 miles    
Events      
T = Trace of Precipitation, MM = Missing Value Source: NWS Daily Summary

Daily Weather History Graph

Daily Weather History Graph

Search for Another Location

Airport:

Trip Planner

Search our weather history database for the weather conditions in past years. The results will help you decide how hot, cold, wet, or windy it might be!

Date:

Astronomy

Mar. 16, 2012 Rise Set
Actual Time 7:13 AM MDT 7:14 PM MDT
Civil Twilight 6:49 AM MDT 7:38 PM MDT
Nautical Twilight 6:21 AM MDT 8:07 PM MDT
Astronomical Twilight 5:52 AM MDT 8:35 PM MDT
Moon 3:15 AM MDT 1:55 PM MDT
Length of Visible Light 12h 49m
Length of Day
12h 01m
Waning Crescent, 32% of the Moon is Illuminated
Mar 16
Waning Crescent
Mar 22
New
Mar 30
First Quarter
Apr 6
Full
Apr 13
Last Quarter

Hourly Weather History & Observations

Time (MDT) Temp. Windchill Dew Point Humidity Pressure Visibility Wind Dir Wind Speed Gust Speed Precip Events Conditions
12:51 AM 52.0 °F - 3.9 °F 14% 29.91 in 10.0 mi ENE 3.5 mph - N/A   Partly Cloudy
1:51 AM 50.0 °F - 3.0 °F 15% 29.91 in 10.0 mi Calm Calm - N/A   Clear
2:51 AM 46.9 °F - 1.9 °F 16% 29.92 in 10.0 mi ENE 5.8 mph - N/A   Clear
3:51 AM 48.9 °F - 3.0 °F 15% 29.89 in 10.0 mi Calm Calm - N/A   Partly Cloudy
4:51 AM 46.0 °F 43.1 °F 3.0 °F 17% 29.89 in 10.0 mi NE 5.8 mph - N/A   Scattered Clouds
5:51 AM 46.0 °F 43.9 °F 3.9 °F 18% 29.89 in 10.0 mi NE 4.6 mph - N/A   Mostly Cloudy
6:51 AM 46.9 °F - 6.1 °F 19% 29.92 in 10.0 mi SW 3.5 mph - N/A   Scattered Clouds
7:51 AM 44.1 °F 40.8 °F 7.0 °F 22% 29.94 in 10.0 mi ENE 5.8 mph - N/A   Scattered Clouds
8:51 AM 52.0 °F - 7.0 °F 16% 29.94 in 10.0 mi NE 5.8 mph - N/A   Scattered Clouds
9:51 AM 57.9 °F - 3.9 °F 11% 29.95 in 10.0 mi North 3.5 mph - N/A   Scattered Clouds
10:51 AM 64.9 °F - 3.9 °F 9% 29.93 in 10.0 mi Calm Calm - N/A   Scattered Clouds
11:51 AM 72.0 °F - 5.0 °F 7% 29.90 in 10.0 mi WSW 4.6 mph - N/A   Partly Cloudy
12:51 PM 77.0 °F - 3.9 °F 6% 29.87 in 10.0 mi SW 5.8 mph - N/A   Partly Cloudy
1:51 PM 79.0 °F - 1.9 °F 5% 29.83 in 10.0 mi SSW 9.2 mph - N/A   Partly Cloudy
2:51 PM 81.0 °F - 3.9 °F 5% 29.80 in 10.0 mi Variable 5.8 mph - N/A   Partly Cloudy
3:51 PM 82.0 °F - 7.0 °F 6% 29.77 in 10.0 mi WSW 9.2 mph 19.6 mph N/A   Partly Cloudy
4:51 PM 82.0 °F - 5.0 °F 5% 29.76 in 10.0 mi WSW 18.4 mph 23.0 mph N/A   Partly Cloudy
5:51 PM 81.0 °F - 3.0 °F 5% 29.76 in 10.0 mi West 11.5 mph 20.7 mph N/A   Partly Cloudy
6:51 PM 79.0 °F - 1.9 °F 5% 29.76 in 10.0 mi West 8.1 mph - N/A   Partly Cloudy
7:51 PM 75.9 °F - 1.0 °F 5% 29.78 in 10.0 mi WNW 5.8 mph - N/A   Clear
8:51 PM 72.0 °F - 1.9 °F 6% 29.78 in 10.0 mi NW 5.8 mph - N/A   Clear
9:51 PM 62.1 °F - 3.0 °F 9% 29.81 in 10.0 mi SSE 4.6 mph - N/A   Clear
10:51 PM 66.0 °F - 6.1 °F 9% 29.81 in 10.0 mi Calm Calm - N/A   Clear
11:51 PM 62.1 °F - 7.0 °F 11% 29.80 in 10.0 mi South 6.9 mph - N/A   Clear